User: anonymous
Location: Fort Frances
(48.6170°N, 93.4170°W)
Time: 04:50:09
(UTC-05:00)
Language:

Iridium 53 - Orbit

View from above orbital plane
View from above orbital plane
View from above satellite
View from above satellite

Ground track
Ground track

The orbit data is extracted from the following two-line orbital elements,

1 25173U 98010E   14212.19547169  .00000156  00000-0  48580-4 0  8819
2 25173 086.3937 070.0886 0002145 099.8732 037.5596 14.34220329860981
Epoch (UTC): 31 July 2014 04:41:28
Eccentricity: 0.0002145
inclination: 86.3937°
perigee height: 776 km
apogee height: 779 km
right ascension of ascending node: 70.0886°
argument of perigee: 99.8732°
revolutions per day: 14.34220329
mean anomaly at epoch: 37.5596°
orbit number at epoch: 86098

The dashed part of the orbit path shows where the satellite is in the earth's shadow,  

DLR